Showing default

GOES 17, 43226

Orbit data source: Space-Track

GOES 17, 43226 is a payload satellite owned by NOAA (US) in GEO that was launched on Thu, 01 Mar 2018 UTC via an ATLAS V 541 launch vehicle from the Air Force Eastern Test Range (AFETR). Payloads include a variety of satellites, spacecraft, and rockets equipped with specific instruments for various scientific and technological missions. These include communications satellites like Starlink; space stations such as the ISS; scientific satellites like the Hubble; Earth observation satellites from companies like Planet Labs, Umbra, and HawkEye 360; GPS; miniature CubeSats for education and research; and military/defense satellites.

Loading next visibility...
GOES 17 details
Identifier
43226, 2018-022A
Orbit
GEO
Last TLE update22 hours ago
Origin
Flag of USNOAA (US)
ManufacturerLMCSS
MissionOn reserve Civil Weather
Bus & MotorA2100, LEROS-1C
Mass5,192 kg wet, 2,857 kg dry
Launch date (UTC)
2018-03-01 (7 years ago)
Launch vehicle
ATLAS V 541
Launch site
Air Force Eastern Test Range (AFETR)
Object type
Payload
Rocket body
Debris
Shape & HBRBox + 1 Pan + 1 Ant, 12 m
Radar Cross Section38.538 m², Large (>1 m²)

Expand to show TLE details & history

TLE from 22 hours ago
0 GOES 17
1 43226U 18022A   24347.93079535 -.00000076  00000-0  00000-0 0  9995
2 43226   0.0121  96.1749 0003645 162.7886  53.5517  1.00270855 24892
Epoch: 2024-12-12T22:20Z
Definitive object data (Epoch: 2024-12-12T22:20:20.718Z)
Latitude0.00056°
Longitude-104.65393°
Altitude35,777.175 km
Speed3.075 km/s
True Right ascension20h 50m 08s
True Declination0° 00' 02"
Sunlit
Object was in daylight at TLE epoch
Visualization TLE readout
Latitude-0.0012°
Longitude-127.10802°
Altitude35,773.116 km
Speed3.076 km/s
Apparent Right ascension19h 20m 34s
Apparent Declination-6° 14' 16"
Sunlit
Object is in daylight
Visualization observer readout
Local Sidereal Time19:18:31
Azimuth179.294° S
Elevation43.844°
Doppler factor1
Orbital elements
Apogee altitude35,803.296 km
Perigee altitude35,772.557 km
Semi-major axis42,166.063 km
Eccentricity0.0003645
Inclination0.0121°
RAAN96.1749°
Arg. of periapsis162.7886°
True anomaly53.58531°
Mean anomaly53.5517°
Eccentric anomaly53.5685°
Mean motion0.25067 °/min
BSTARUnknown
Orbital period1436.16 mins
Loading historical data...
43226 neighbors
Authenticating...
Loading maneuver chart data...
Loading historical data...
Loading historical data...
Loading historical data...
Loading historical data...
Loading historical data...
Loading historical data...
Loading historical data...
Other satellites on launch #22 in the year 2018 (2018-03-01 UTC)

GOES 17 Visibility forecast

Observer location: undefined°, undefined

Span
Click to sort rows by Start time (UTC) header in descending order
Start Az.
Max El. time (UTC)
Max El. Az.
Max El.
End time (UTC)
End Az.
1440 mins2024-12-13 20:46:53.357Z179.295° S2024-12-14 10:02:53.357Z179.378° S34.707°2024-12-14 20:46:53.357Z179.293° S
|